Starlink 4080

operational
NORAD ID: 52835 Int'l Des: 2022-062 Owner: SPXS Country: US Constellation: starlink
LEOCIRCULAR

Über Starlink 4080

Beschreibung wird geladen...

Live-Position

3D-Globus wird geladen...

Nächste Überflüge

Höhenverlauf

Altitude vs Time

uPlot chart will show altitude changes over time

Zweizeiliger Elementsatz

1 52835U 22062F 26033.45150800 -.00000179 00000-0 68604-5 0 9999
2 52835 53.2167 192.3096 0001396 90.9058 269.2094 15.08837668200465
Epoch: 2. Feb. 2026 • Age: 23 hours

Aktueller Status

Höhe 554.9 km
Geschwindigkeit 7.58 km/s
Subsatellitenpunkt -42.79°S, 125.71°E
Startdatum 17. Juni 2022
Alter 3.6 years
Typ internet

Technische Details

Klassifizierung Payload
Masse 297.00 kg
Trockenmasse 275.00 kg
Gesamtmasse 297.00 kg
Länge 0.20 m
Durchmesser 2.80 m
Spannweite 9.00 m
Form Box + pan
Hersteller SPXS
Bus-Typ Starlink
Phasenstatus In Orbit
Besitzer/Staat SPXS/US

Große Konstellationen

Loading constellations...